Regional Weather Roundup
Issued by NWS New Orleans/Baton Rouge, LA

Home | Current Version | Previous Version | Text Only | Print | Product List | Glossary On
Versions: 1 2 3 4 5 6 7 8 9 10 11 12 13 14 15 16 17 18 19 20 21 22 23 24 25 26 27 28 29 30 31 32 33 34 35 36 37 38 39 40 41 42 43 44 45 46 47 48 49 50
231
ASUS44 KLIX 290101
RWRLIX
NEW ORLEANS REGIONAL WEATHER ROUNDUP
NATIONAL WEATHER SERVICE NEW ORLEANS LA
700 PM CST FRI NOV 28 2014

NOTE: "FAIR" INDICATES FEW OR NO CLOUDS BELOW 12,000 FEET WITH NO
      SIGNIFICANT WEATHER AND/OR OBSTRUCTIONS TO VISIBILITY.
      SKY/WX - SKY CONDITION AND SIGNIFICANT WEATHER.
      TMP - AIR TEMPERATURE.     DP    - DEWPOINT TEMPERATURE.
      RH  - RELATIVE HUMIDITY.   PRES  - PRESSURE.
      HI  - HEAT INDEX.          WCI   - WIND CHILL INDEX.

*  THESE STATIONS ARE NOT NWS OR FAA STATIONS AND ARE NOT UNDER
   NWS QUALITY CONTROL.

LAZ038-040-048-061>063-065>067-069-290200-
SOUTHEAST LOUISIANA

CITY           SKY/WX    TMP DP  RH WIND       PRES   REMARKS
N.O. AUDUBON   NOT AVBL
N.O. INTL ARPT CLEAR     52  43  71 SE6       30.30S
N.O. LAKEFRONT CLEAR     51  43  74 SE7       30.31S
N.O. DOWNTOWN*   N/A     54  41  62 E5        30.31S
SLIDELL        CLEAR     44  39  82 CALM      30.30S
BATON ROUGE    CLEAR     50  40  68 E9        30.27R
BOOTHVILLE     CLEAR     53  50  89 CALM      30.31S
BELLE CHASSE   PTCLDY    47  42  83 CALM      30.30F
BOGALUSA*        N/A     49  39  66 S5        30.30S
NEW ROADS*     NOT AVBL
GONZALES*      NOT AVBL
HAMMOND*       NOT AVBL
HOUMA*         CLEAR     47  43  86 SE5       30.29S
PORT FOURCHON* MOCLDY    57  52  82 VRB3      30.32F

$$

MSZ070-080>082-290200-
SOUTHERN MISSISSIPPI

CITY           SKY/WX    TMP DP  RH WIND       PRES   REMARKS
MCCOMB         CLEAR     47  29  49 SE5       30.26S
GULFPORT       CLEAR     43  37  79 CALM      30.30F
BILOXI         CLEAR     51  35  53 S5        30.30F
PASCAGOULA     CLEAR     39  35  86 CALM      30.31S

$$

COASTAL OBSERVATIONS
LAKE AND NEARSHORE STATIONS

STATION/POSITION TIME  TEMP    WIND        PRES    WAVE
                       AIR SEA DIR/SP/G            HT/PER
                 (UTC) (F)     (DEG/KT/KT) (MB)    (FT/S)
PASCAGOULA       0000   54     160/  6/  8 1025.8
WAVELAND YACHT   0000   52     190/  4/  7 1025.4
GRAND ISLE       0000   56 59   80/  7/  8 1026.3
SOUTHWEST PASS   0000   58                 1026.1
NEW CANAL        0000   51 54   CALM  /  1 1026.4
SHELL BEACH      0000   52 53  100/  6/  8 1026.0

OFFSHORE STATIONS

STATION/POSITION TIME  TEMP    WIND        PRES    WAVE
                       AIR SEA DIR/SP/G            HT/PER
                 (UTC) (F)     (DEG/KT/KT) (MB)    (FT/S)
64 S DAUPHIN ISL 0002   59 70  100/  8/ 12 1027.0    2/ 5

$$




USA.gov is the U.S. government's official web portal to all federal, state and local government web resources and services.